This is the latest recevied weather packets stored in our database for station/object KBTL-WX. If no packets are shown the sender has not sent any weather packets the latest 10 day(s).
| Time | Temp. | Humidity | Pressure | Rain* | Wind** | Luminosity | Snow |
|---|---|---|---|---|---|---|---|
| 1777599914 | 5.56° C | 52% | 982.6 hPa | 0 mm | - | - | - |
| 1777599026 | 5.56° C | 52% | 982.6 hPa | 0 mm | - | - | - |
| 1777598114 | 7.22° C | 52% | 982.7 hPa | 0 mm | - | - | - |
| 1777597229 | 7.78° C | 52% | 982.7 hPa | 0 mm | - | - | - |
| 1777596314 | 7.22° C | 45% | 982.3 hPa | 0 mm | - | - | - |
| 1777595426 | 7.78° C | 46% | 983.1 hPa | 0 mm | - | - | - |
| 1777594514 | 8.33° C | 46% | 983.1 hPa | 0 mm | - | - | - |
| 1777593634 | 8.33° C | 46% | 983.1 hPa | 0 mm | - | - | - |
| 1777592715 | 8.33° C | 44% | 982.2 hPa | 0 mm | - | - | - |
| 1777591829 | 8.89° C | 42% | 982.6 hPa | 0 mm | - | - | - |
| 1777590915 | 8.89° C | 42% | 982.6 hPa | 0 mm | - | - | - |
| 1777590031 | 9.44° C | 42% | 982.6 hPa | 0 mm | - | - | - |
| 1777589114 | 10° C | 42% | 983.2 hPa | 0 mm | - | - | - |
| 1777588226 | 10° C | 41% | 983.7 hPa | 0 mm | - | - | - |
| 1777587314 | 10° C | 41% | 983.7 hPa | 0 mm | - | - | - |
| 1777586437 | 10° C | 41% | 983.7 hPa | 0 mm | - | - | - |
| 1777585514 | 10.56° C | 41% | 982.6 hPa | 0 mm | - | - | - |
| 1777584631 | 10.56° C | 39% | 983.4 hPa | 0 mm | - | - | - |
| 1777583715 | 10.56° C | 39% | 983.4 hPa | 0 mm | - | - | - |
| 1777582830 | 10.56° C | 39% | 983.4 hPa | 0 mm | - | - | - |
| 1777581915 | 10.56° C | 38% | 983.3 hPa | 0 mm | - | - | - |
| 1777581031 | 10.56° C | 40% | 982.7 hPa | 0 mm | - | - | - |
| 1777580115 | 10.56° C | 40% | 982.7 hPa | 0 mm | - | - | - |
| 1777579237 | 10.56° C | 40% | 982.7 hPa | 0 mm | - | - | - |
| 1777578315 | 10.56° C | 41% | 982.7 hPa | 0 mm | - | - | - |
* Rain latest hour (hover to see other rain measurements)
** Current wind speed in m/s (hover to see current wind gust speed)